ITY319 LFPG-LIRF

Flight info

Callsign ITY319
Flight time 1h 36m
Altitude 37000
Route OKASI DCT OKEKO DCT MOU DCT MADIV DCT MOKIP DCT TUFTA DCT KOGAS DCT MEDAM DCT NITAM DCT MOGBO DCT ELB/N0441F380 DCT ELKAP
Aircraft A320/M-SDE3FGHIRWY/LB1

Departure

Time 2026-05-06 05:22
Airport Charles de Gaulle International Airport (LFPG)

Arrival

Time 2026-05-06 06:58
Airport Rome–Fiumicino Leonardo da Vinci International Airport (LIRF)
Time Latitude Longitude Altitude Speed Heading
2026-05-06 05:01 49.00519 2.56503 355 ft 0 kts 143°
2026-05-06 05:12 49.00522 2.56500 360 ft 3 kts 142°
2026-05-06 05:12 49.00543 2.56478 359 ft 4 kts 155°
2026-05-06 05:13 49.00569 2.56465 357 ft 4 kts 168°
2026-05-06 05:13 49.00593 2.56463 354 ft 4 kts 208°
2026-05-06 05:13 49.00610 2.56490 361 ft 4 kts 257°
2026-05-06 05:13 49.00612 2.56508 357 ft 1 kts 265°
2026-05-06 05:14 49.00612 2.56509 356 ft 0 kts 265°
2026-05-06 05:16 49.00619 2.56490 358 ft 3 kts 299°
2026-05-06 05:16 49.00625 2.56415 359 ft 8 kts 265°
2026-05-06 05:16 49.00621 2.56354 357 ft 3 kts 265°
2026-05-06 05:17 49.00618 2.56286 354 ft 10 kts 266°
2026-05-06 05:17 49.00610 2.56147 354 ft 16 kts 264°
2026-05-06 05:17 49.00585 2.55993 358 ft 14 kts 248°
2026-05-06 05:17 49.00568 2.55864 359 ft 13 kts 263°
2026-05-06 05:18 49.00559 2.55678 354 ft 22 kts 269°
2026-05-06 05:18 49.00550 2.55451 361 ft 20 kts 262°
2026-05-06 05:18 49.00455 2.55331 358 ft 18 kts 177°
2026-05-06 05:18 49.00341 2.55376 359 ft 16 kts 164°
2026-05-06 05:19 49.00213 2.55430 360 ft 22 kts 164°
2026-05-06 05:19 49.00053 2.55501 356 ft 26 kts 164°
2026-05-06 05:19 48.99891 2.55596 354 ft 21 kts 148°
2026-05-06 05:19 48.99823 2.55755 354 ft 18 kts 124°
2026-05-06 05:20 48.99729 2.55806 354 ft 12 kts 172°
2026-05-06 05:20 48.99706 2.55811 354 ft 0 kts 172°
2026-05-06 05:20 48.99679 2.55817 358 ft 8 kts 172°
2026-05-06 05:21 48.99607 2.55840 356 ft 10 kts 141°
2026-05-06 05:21 48.99611 2.56021 354 ft 43 kts 84°
2026-05-06 05:21 48.99657 2.56855 362 ft 111 kts 87°
2026-05-06 05:21 48.99729 2.58319 366 ft 163 kts 83°
2026-05-06 05:22 48.99785 2.60061 933 ft 164 kts 79°
2026-05-06 05:22 48.99871 2.61799 1638 ft 167 kts 79°
2026-05-06 05:22 48.99985 2.63665 2022 ft 186 kts 79°
2026-05-06 05:22 49.00111 2.65722 2460 ft 204 kts 81°
2026-05-06 05:23 49.00245 2.68019 2766 ft 232 kts 82°
2026-05-06 05:23 49.00338 2.69688 3121 ft 246 kts 82°
2026-05-06 05:23 49.00609 2.75017 4802 ft 259 kts 83°
2026-05-06 05:24 49.00720 2.77793 5678 ft 266 kts 89°
2026-05-06 05:24 49.00322 2.80585 6526 ft 277 kts 111°
2026-05-06 05:24 48.99153 2.82935 7325 ft 285 kts 141°
2026-05-06 05:24 48.97371 2.84228 8185 ft 288 kts 169°
2026-05-06 05:25 48.95376 2.84108 9034 ft 290 kts 197°
2026-05-06 05:25 48.93455 2.83161 9966 ft 290 kts 199°
2026-05-06 05:25 48.91488 2.82160 10425 ft 309 kts 199°
2026-05-06 05:25 48.89406 2.81100 10887 ft 323 kts 199°
2026-05-06 05:26 48.87251 2.80013 11622 ft 328 kts 200°
2026-05-06 05:26 48.85073 2.78922 12383 ft 332 kts 199°
2026-05-06 05:26 48.82870 2.77825 13159 ft 334 kts 200°
2026-05-06 05:26 48.80660 2.76730 13890 ft 337 kts 200°
2026-05-06 05:27 48.78449 2.75635 14535 ft 341 kts 200°
2026-05-06 05:27 48.76184 2.74517 15178 ft 344 kts 199°
2026-05-06 05:27 48.73898 2.73388 15814 ft 348 kts 200°
2026-05-06 05:27 48.71587 2.72249 16469 ft 351 kts 199°
2026-05-06 05:28 48.69262 2.71097 17143 ft 353 kts 199°
2026-05-06 05:28 48.66911 2.69932 17774 ft 357 kts 199°
2026-05-06 05:28 48.64535 2.68756 18336 ft 362 kts 198°
2026-05-06 05:28 48.62132 2.67570 18875 ft 365 kts 198°
2026-05-06 05:29 48.59711 2.66376 19450 ft 367 kts 198°
2026-05-06 05:29 48.57268 2.65171 19991 ft 371 kts 198°
2026-05-06 05:29 48.54807 2.63961 20521 ft 374 kts 198°
2026-05-06 05:29 48.52313 2.62739 21045 ft 378 kts 198°
2026-05-06 05:30 48.49765 2.61655 21571 ft 382 kts 190°
2026-05-06 05:30 48.47114 2.61253 22090 ft 385 kts 179°
2026-05-06 05:30 48.44427 2.61431 22613 ft 388 kts 176°
2026-05-06 05:30 48.41713 2.61640 23142 ft 392 kts 176°
2026-05-06 05:31 48.39017 2.61836 23659 ft 393 kts 177°
2026-05-06 05:31 48.36288 2.62028 24168 ft 394 kts 177°
2026-05-06 05:31 48.33542 2.62220 24610 ft 396 kts 176°
2026-05-06 05:31 48.30781 2.62447 25016 ft 399 kts 173°
2026-05-06 05:32 48.28041 2.63213 25404 ft 401 kts 163°
2026-05-06 05:32 48.25423 2.64681 25787 ft 403 kts 153°
2026-05-06 05:32 48.22912 2.66599 26156 ft 406 kts 152°
2026-05-06 05:32 48.20393 2.68538 26538 ft 409 kts 152°
2026-05-06 05:33 48.17853 2.70493 26928 ft 411 kts 152°
2026-05-06 05:33 48.15302 2.72450 27317 ft 413 kts 152°
2026-05-06 05:33 48.12729 2.74418 27692 ft 416 kts 152°
2026-05-06 05:33 48.10149 2.76389 28056 ft 418 kts 152°
2026-05-06 05:34 48.07545 2.78352 28413 ft 421 kts 153°
2026-05-06 05:34 48.04867 2.80207 28566 ft 428 kts 155°
2026-05-06 05:34 48.02114 2.81972 28700 ft 435 kts 156°
2026-05-06 05:34 47.99328 2.83679 28840 ft 441 kts 157°
2026-05-06 05:35 47.96473 2.85406 28994 ft 446 kts 158°
2026-05-06 05:35 47.93588 2.87163 29155 ft 450 kts 158°
2026-05-06 05:35 47.90693 2.88955 29402 ft 451 kts 158°
2026-05-06 05:35 47.87795 2.90777 29741 ft 451 kts 157°
2026-05-06 05:36 47.84918 2.92604 30044 ft 451 kts 157°
2026-05-06 05:36 47.82032 2.94445 30342 ft 450 kts 157°
2026-05-06 05:36 47.79196 2.96257 30678 ft 446 kts 158°
2026-05-06 05:36 47.76336 2.98076 31067 ft 443 kts 158°
2026-05-06 05:37 47.73503 2.99866 31416 ft 441 kts 158°
2026-05-06 05:37 47.70689 3.01634 31743 ft 439 kts 158°
2026-05-06 05:37 47.67873 3.03401 32047 ft 439 kts 158°
2026-05-06 05:37 47.65063 3.05160 32340 ft 439 kts 158°
2026-05-06 05:38 47.62245 3.06920 32629 ft 439 kts 158°
2026-05-06 05:38 47.59435 3.08673 32914 ft 438 kts 158°
2026-05-06 05:38 47.56632 3.10419 33198 ft 438 kts 158°
2026-05-06 05:38 47.53814 3.12176 33517 ft 437 kts 158°
2026-05-06 05:39 47.51061 3.13892 33878 ft 435 kts 158°
2026-05-06 05:39 47.48276 3.15626 34145 ft 434 kts 158°
2026-05-06 05:39 47.45463 3.17377 34374 ft 434 kts 158°
2026-05-06 05:39 47.42699 3.19098 34579 ft 435 kts 158°
2026-05-06 05:40 47.39918 3.20828 34784 ft 436 kts 158°
2026-05-06 05:40 47.37154 3.22544 34972 ft 436 kts 158°
2026-05-06 05:40 47.34328 3.24295 35166 ft 437 kts 158°
2026-05-06 05:40 47.31540 3.26022 35364 ft 438 kts 158°
2026-05-06 05:41 47.28732 3.27757 35553 ft 438 kts 159°
2026-05-06 05:41 47.25955 3.29468 35731 ft 438 kts 159°
2026-05-06 05:41 47.23325 3.31085 35897 ft 439 kts 159°
2026-05-06 05:41 47.20513 3.32829 36085 ft 439 kts 159°
2026-05-06 05:42 47.17696 3.34570 36264 ft 439 kts 159°
2026-05-06 05:42 47.14879 3.36299 36436 ft 439 kts 159°
2026-05-06 05:42 47.12055 3.38025 36612 ft 440 kts 159°
2026-05-06 05:42 47.09228 3.39750 36788 ft 440 kts 159°
2026-05-06 05:43 47.03552 3.43216 36852 ft 443 kts 159°
2026-05-06 05:43 46.97870 3.46685 36857 ft 443 kts 159°
2026-05-06 05:44 46.92185 3.50139 36857 ft 443 kts 159°
2026-05-06 05:44 46.86478 3.53597 36857 ft 443 kts 159°
2026-05-06 05:45 46.80805 3.57044 36859 ft 443 kts 159°
2026-05-06 05:45 46.75218 3.60919 36864 ft 446 kts 147°
2026-05-06 05:46 46.72823 3.63812 36861 ft 450 kts 136°
2026-05-06 05:46 46.70856 3.67386 36858 ft 453 kts 124°
2026-05-06 05:46 46.69414 3.71472 36856 ft 457 kts 113°
2026-05-06 05:46 46.68516 3.75931 36855 ft 460 kts 106°
2026-05-06 05:47 46.66997 3.84987 36853 ft 460 kts 106°
2026-05-06 05:47 46.65448 3.94021 36854 ft 461 kts 107°
2026-05-06 05:48 46.63872 4.03071 36857 ft 461 kts 107°
2026-05-06 05:48 46.62294 4.12118 36848 ft 462 kts 107°
2026-05-06 05:49 46.60711 4.21181 36853 ft 462 kts 107°
2026-05-06 05:49 46.59130 4.30214 36860 ft 462 kts 107°
2026-05-06 05:50 46.57536 4.39244 36866 ft 462 kts 107°
2026-05-06 05:50 46.55930 4.48299 36859 ft 462 kts 107°
2026-05-06 05:51 46.54322 4.57366 36866 ft 462 kts 107°
2026-05-06 05:51 46.52704 4.66417 36871 ft 463 kts 108°
2026-05-06 05:52 46.51068 4.75451 36880 ft 463 kts 108°
2026-05-06 05:52 46.49427 4.84476 36857 ft 463 kts 108°
2026-05-06 05:53 46.47794 4.93455 36869 ft 463 kts 108°
2026-05-06 05:53 46.46154 5.02466 36869 ft 463 kts 108°
2026-05-06 05:54 46.44490 5.11508 36861 ft 463 kts 108°
2026-05-06 05:54 46.42825 5.20533 36864 ft 463 kts 108°
2026-05-06 05:55 46.41162 5.29563 36873 ft 463 kts 109°
2026-05-06 05:55 46.39394 5.38509 36865 ft 460 kts 115°
2026-05-06 05:56 46.36268 5.46405 36850 ft 449 kts 133°
2026-05-06 05:56 46.32239 5.53238 36855 ft 448 kts 134°
2026-05-06 05:57 46.28158 5.60155 36838 ft 449 kts 134°
2026-05-06 05:57 46.24135 5.66969 36845 ft 449 kts 134°
2026-05-06 05:58 46.20078 5.73812 36852 ft 449 kts 135°
2026-05-06 05:58 46.15996 5.80663 36859 ft 449 kts 135°
2026-05-06 05:59 46.11919 5.87493 36862 ft 449 kts 135°
2026-05-06 05:59 46.07844 5.94321 36864 ft 449 kts 135°
2026-05-06 06:00 46.03772 6.01128 36859 ft 449 kts 135°
2026-05-06 06:00 45.99695 6.07912 36857 ft 449 kts 135°
2026-05-06 06:01 45.95598 6.14707 36858 ft 450 kts 136°
2026-05-06 06:01 45.91492 6.21492 36862 ft 450 kts 136°
2026-05-06 06:02 45.87386 6.28282 36860 ft 451 kts 135°
2026-05-06 06:02 45.83264 6.35088 36850 ft 451 kts 136°
2026-05-06 06:03 45.78780 6.41202 36851 ft 441 kts 150°
2026-05-06 06:03 45.73799 6.46250 36849 ft 441 kts 150°
2026-05-06 06:04 45.68788 6.51338 36844 ft 441 kts 149°
2026-05-06 06:04 45.63793 6.56422 36860 ft 442 kts 149°
2026-05-06 06:05 45.58786 6.61505 36856 ft 441 kts 149°
2026-05-06 06:05 45.53772 6.66570 36844 ft 440 kts 150°
2026-05-06 06:06 45.48776 6.71607 36864 ft 439 kts 150°
2026-05-06 06:06 45.43789 6.76625 36867 ft 439 kts 150°
2026-05-06 06:07 45.38799 6.81630 36884 ft 438 kts 150°
2026-05-06 06:07 45.33826 6.86624 36878 ft 438 kts 150°
2026-05-06 06:08 45.28852 6.91604 36894 ft 437 kts 151°
2026-05-06 06:08 45.24143 6.97166 36878 ft 445 kts 142°
2026-05-06 06:09 45.19745 7.03236 36903 ft 445 kts 142°
2026-05-06 06:09 45.15287 7.09363 36896 ft 445 kts 142°
2026-05-06 06:10 45.11578 7.14462 36914 ft 446 kts 140°
2026-05-06 06:10 45.07751 7.21521 36920 ft 455 kts 131°
2026-05-06 06:11 45.04124 7.28834 36918 ft 454 kts 131°
2026-05-06 06:11 44.99915 7.37303 36871 ft 455 kts 131°
2026-05-06 06:12 44.96575 7.43056 36879 ft 445 kts 142°
2026-05-06 06:12 44.92171 7.49198 36858 ft 445 kts 142°
2026-05-06 06:13 44.87773 7.55339 36858 ft 445 kts 142°
2026-05-06 06:13 44.83399 7.61449 36849 ft 445 kts 142°
2026-05-06 06:14 44.78986 7.67600 36853 ft 446 kts 142°
2026-05-06 06:14 44.74561 7.73736 36862 ft 446 kts 142°
2026-05-06 06:15 44.70156 7.79823 36849 ft 446 kts 143°
2026-05-06 06:15 44.65726 7.85943 36863 ft 446 kts 142°
2026-05-06 06:16 44.61295 7.92052 36865 ft 446 kts 143°
2026-05-06 06:16 44.56863 7.98134 36842 ft 446 kts 143°
2026-05-06 06:17 44.52450 8.04191 36863 ft 446 kts 143°
2026-05-06 06:17 44.48009 8.10278 36883 ft 446 kts 143°
2026-05-06 06:18 44.43591 8.16313 36876 ft 447 kts 143°
2026-05-06 06:18 44.39136 8.22384 36882 ft 446 kts 143°
2026-05-06 06:19 44.34715 8.28400 36881 ft 446 kts 143°
2026-05-06 06:19 44.30258 8.34449 36822 ft 446 kts 143°
2026-05-06 06:20 44.25831 8.40445 36847 ft 446 kts 143°
2026-05-06 06:20 44.21402 8.46426 36862 ft 445 kts 143°
2026-05-06 06:21 44.16982 8.52387 36866 ft 445 kts 143°
2026-05-06 06:21 44.12539 8.58377 36868 ft 445 kts 144°
2026-05-06 06:22 44.08086 8.64353 36837 ft 445 kts 144°
2026-05-06 06:22 44.03626 8.70314 36844 ft 445 kts 144°
2026-05-06 06:23 43.99164 8.76272 36833 ft 445 kts 144°
2026-05-06 06:23 43.94706 8.82217 36846 ft 445 kts 144°
2026-05-06 06:24 43.90238 8.88162 36851 ft 445 kts 144°
2026-05-06 06:24 43.85771 8.94091 36845 ft 444 kts 144°
2026-05-06 06:25 43.81304 9.00006 36862 ft 444 kts 144°
2026-05-06 06:26 43.74602 9.08859 36876 ft 444 kts 144°
2026-05-06 06:26 43.70129 9.14758 36877 ft 444 kts 144°
2026-05-06 06:27 43.65676 9.20605 36869 ft 445 kts 144°
2026-05-06 06:27 43.61193 9.26492 36885 ft 444 kts 144°
2026-05-06 06:28 43.56737 9.32337 36891 ft 444 kts 144°
2026-05-06 06:28 43.52278 9.38168 36897 ft 444 kts 145°
2026-05-06 06:29 43.47792 9.44001 36898 ft 443 kts 145°
2026-05-06 06:29 43.43315 9.49804 36849 ft 444 kts 145°
2026-05-06 06:30 43.38834 9.55609 36864 ft 446 kts 144°
2026-05-06 06:30 43.34306 9.61480 36872 ft 448 kts 144°
2026-05-06 06:31 43.29799 9.67311 36877 ft 448 kts 145°
2026-05-06 06:31 43.25249 9.73179 36886 ft 449 kts 145°
2026-05-06 06:32 43.20696 9.79038 36874 ft 449 kts 144°
2026-05-06 06:32 43.16138 9.84883 36865 ft 448 kts 144°
2026-05-06 06:33 43.11586 9.90719 36893 ft 448 kts 144°
2026-05-06 06:33 43.07032 9.96547 36910 ft 448 kts 144°
2026-05-06 06:34 43.02493 10.02332 36918 ft 447 kts 144°
2026-05-06 06:34 42.97918 10.08152 36896 ft 448 kts 144°
2026-05-06 06:35 42.93363 10.13935 36903 ft 447 kts 144°
2026-05-06 06:35 42.88838 10.19679 36907 ft 447 kts 144°
2026-05-06 06:36 42.84278 10.25447 36663 ft 447 kts 144°
2026-05-06 06:36 42.81996 10.28328 36407 ft 447 kts 144°
2026-05-06 06:36 42.79712 10.31208 35787 ft 448 kts 144°
2026-05-06 06:36 42.77448 10.34150 34963 ft 454 kts 139°
2026-05-06 06:37 42.75475 10.37574 34088 ft 467 kts 129°
2026-05-06 06:37 42.73949 10.41555 33046 ft 482 kts 117°
2026-05-06 06:37 42.72987 10.45970 31986 ft 494 kts 105°
2026-05-06 06:37 42.72630 10.50663 30820 ft 505 kts 97°
2026-05-06 06:38 42.72462 10.55460 29589 ft 510 kts 96°
2026-05-06 06:38 42.72189 10.60156 29048 ft 483 kts 103°
2026-05-06 06:38 42.71450 10.64441 28711 ft 452 kts 113°
2026-05-06 06:38 42.70295 10.68253 28106 ft 435 kts 123°
2026-05-06 06:39 42.68758 10.71745 27664 ft 425 kts 128°
2026-05-06 06:39 42.67191 10.75129 27166 ft 421 kts 127°
2026-05-06 06:39 42.65644 10.78494 26664 ft 417 kts 127°
2026-05-06 06:39 42.64118 10.81828 26176 ft 414 kts 127°
2026-05-06 06:40 42.62604 10.85136 25702 ft 411 kts 127°
2026-05-06 06:40 42.61103 10.88413 25233 ft 407 kts 127°
2026-05-06 06:40 42.59613 10.91663 24786 ft 404 kts 126°
2026-05-06 06:40 42.58121 10.94906 24128 ft 407 kts 126°
2026-05-06 06:41 42.56627 10.98143 23716 ft 402 kts 126°
2026-05-06 06:41 42.55149 11.01345 23211 ft 399 kts 126°
2026-05-06 06:41 42.53687 11.04508 22401 ft 393 kts 126°
2026-05-06 06:41 42.52247 11.07621 21753 ft 387 kts 126°
2026-05-06 06:42 42.50821 11.10698 21201 ft 384 kts 127°
2026-05-06 06:42 42.49428 11.13702 20655 ft 380 kts 127°
2026-05-06 06:42 42.48023 11.16725 20107 ft 377 kts 127°
2026-05-06 06:42 42.46626 11.19718 19565 ft 377 kts 127°
2026-05-06 06:43 42.45239 11.22693 19346 ft 368 kts 127°
2026-05-06 06:43 42.43898 11.25576 19218 ft 356 kts 127°
2026-05-06 06:43 42.42577 11.28420 18953 ft 350 kts 127°
2026-05-06 06:43 42.41290 11.31184 18459 ft 352 kts 127°
2026-05-06 06:44 42.39998 11.33958 18152 ft 346 kts 127°
2026-05-06 06:44 42.38725 11.36684 17443 ft 341 kts 127°
2026-05-06 06:44 42.37463 11.39380 16752 ft 337 kts 127°
2026-05-06 06:44 42.36214 11.42047 16213 ft 333 kts 127°
2026-05-06 06:45 42.34967 11.44704 15749 ft 335 kts 127°
2026-05-06 06:45 42.33726 11.47346 15389 ft 333 kts 127°
2026-05-06 06:45 42.32480 11.49995 15053 ft 332 kts 127°
2026-05-06 06:45 42.31251 11.52612 14679 ft 326 kts 127°
2026-05-06 06:46 42.30040 11.55191 14038 ft 324 kts 127°
2026-05-06 06:46 42.28834 11.57753 13373 ft 321 kts 127°
2026-05-06 06:46 42.27643 11.60273 12785 ft 316 kts 127°
2026-05-06 06:46 42.26462 11.62772 12319 ft 317 kts 127°
2026-05-06 06:47 42.25281 11.65278 11955 ft 315 kts 127°
2026-05-06 06:47 42.24101 11.67772 11500 ft 315 kts 127°
2026-05-06 06:47 42.22936 11.70235 11374 ft 307 kts 127°
2026-05-06 06:47 42.21800 11.72639 11249 ft 300 kts 127°
2026-05-06 06:48 42.20704 11.75006 11137 ft 295 kts 126°
2026-05-06 06:48 42.19673 11.77359 10834 ft 289 kts 124°
2026-05-06 06:48 42.18676 11.79695 10422 ft 287 kts 124°
2026-05-06 06:48 42.17689 11.82018 10010 ft 285 kts 124°
2026-05-06 06:49 42.16699 11.84330 9608 ft 283 kts 124°
2026-05-06 06:49 42.15723 11.86597 9147 ft 280 kts 125°
2026-05-06 06:49 42.14746 11.88866 8702 ft 277 kts 124°
2026-05-06 06:49 42.13780 11.91097 8168 ft 274 kts 125°
2026-05-06 06:50 42.12815 11.93305 7601 ft 272 kts 124°
2026-05-06 06:50 42.11863 11.95486 7002 ft 269 kts 124°
2026-05-06 06:50 42.10918 11.97648 6431 ft 266 kts 125°
2026-05-06 06:50 42.10005 11.99749 5952 ft 260 kts 125°
2026-05-06 06:51 42.09098 12.01838 5480 ft 257 kts 125°
2026-05-06 06:51 42.08193 12.03915 5058 ft 257 kts 125°
2026-05-06 06:51 42.07294 12.05980 4680 ft 255 kts 125°
2026-05-06 06:51 42.06402 12.08020 4350 ft 251 kts 125°
2026-05-06 06:52 42.05536 12.09997 4149 ft 240 kts 125°
2026-05-06 06:52 42.04702 12.11902 3967 ft 231 kts 125°
2026-05-06 06:52 42.03900 12.13736 3788 ft 224 kts 126°
2026-05-06 06:52 42.03125 12.15509 3611 ft 216 kts 126°
2026-05-06 06:53 42.02374 12.17226 3442 ft 209 kts 126°
2026-05-06 06:53 42.01516 12.18720 3283 ft 193 kts 146°
2026-05-06 06:53 42.00380 12.19524 3212 ft 181 kts 166°
2026-05-06 06:53 41.99193 12.20020 3026 ft 176 kts 165°
2026-05-06 06:54 41.98071 12.20489 2891 ft 161 kts 164°
2026-05-06 06:54 41.97027 12.20924 2588 ft 154 kts 163°
2026-05-06 06:54 41.96040 12.21328 2377 ft 144 kts 164°
2026-05-06 06:54 41.95104 12.21702 2142 ft 140 kts 162°
2026-05-06 06:55 41.94187 12.22104 2016 ft 139 kts 162°
2026-05-06 06:55 41.93259 12.22496 1830 ft 138 kts 162°
2026-05-06 06:55 41.92362 12.22887 1662 ft 137 kts 161°
2026-05-06 06:55 41.91452 12.23275 1443 ft 137 kts 161°
2026-05-06 06:56 41.90540 12.23659 1277 ft 137 kts 162°
2026-05-06 06:56 41.89623 12.24026 1061 ft 137 kts 162°
2026-05-06 06:56 41.88722 12.24430 912 ft 137 kts 162°
2026-05-06 06:56 41.87800 12.24807 697 ft 137 kts 160°
2026-05-06 06:57 41.86906 12.25188 560 ft 137 kts 160°
2026-05-06 06:57 41.85991 12.25568 354 ft 137 kts 161°
2026-05-06 06:57 41.85088 12.25940 166 ft 136 kts 159°
2026-05-06 06:57 41.84201 12.26312 28 ft 128 kts 158°
2026-05-06 06:58 41.83460 12.26628 13 ft 90 kts 163°
2026-05-06 06:58 41.83020 12.26813 12 ft 47 kts 163°
2026-05-06 06:58 41.82746 12.26873 13 ft 34 kts 183°
2026-05-06 06:58 41.82526 12.26818 11 ft 32 kts 192°
2026-05-06 06:59 41.82314 12.26783 13 ft 30 kts 168°
2026-05-06 06:59 41.82141 12.26856 11 ft 25 kts 162°
2026-05-06 06:59 41.81973 12.26929 11 ft 26 kts 162°
2026-05-06 06:59 41.81795 12.27000 13 ft 27 kts 162°
2026-05-06 07:00 41.81615 12.27077 13 ft 28 kts 163°
2026-05-06 07:00 41.81427 12.27155 12 ft 29 kts 163°
2026-05-06 07:00 41.81297 12.27209 13 ft 29 kts 162°
2026-05-06 07:00 41.81110 12.27287 12 ft 27 kts 162°
2026-05-06 07:01 41.80903 12.27345 12 ft 23 kts 187°
2026-05-06 07:01 41.80743 12.27314 13 ft 23 kts 189°
2026-05-06 07:01 41.80662 12.27243 13 ft 22 kts 241°
2026-05-06 07:01 41.80615 12.27075 14 ft 18 kts 250°
2026-05-06 07:02 41.80573 12.26923 15 ft 17 kts 250°
2026-05-06 07:02 41.80535 12.26785 14 ft 15 kts 250°
2026-05-06 07:02 41.80502 12.26666 15 ft 12 kts 250°
2026-05-06 07:02 41.80473 12.26561 18 ft 11 kts 250°
2026-05-06 07:03 41.80445 12.26459 15 ft 15 kts 251°
2026-05-06 07:03 41.80369 12.26363 14 ft 16 kts 180°
2026-05-06 07:03 41.80259 12.26407 14 ft 18 kts 173°
2026-05-06 07:03 41.80137 12.26358 14 ft 20 kts 207°
2026-05-06 07:04 41.80008 12.26275 16 ft 21 kts 205°
2026-05-06 07:04 41.79867 12.26190 16 ft 22 kts 204°
2026-05-06 07:04 41.79765 12.26087 14 ft 18 kts 268°
2026-05-06 07:04 41.79815 12.25926 16 ft 19 kts 295°
2026-05-06 07:05 41.79797 12.25817 14 ft 13 kts 203°
2026-05-06 07:05 41.79706 12.25761 14 ft 15 kts 205°
2026-05-06 07:05 41.79659 12.25718 15 ft 6 kts 254°
2026-05-06 07:05 41.79673 12.25662 14 ft 7 kts 295°
2026-05-06 07:06 41.79687 12.25623 14 ft 1 kts 296°
2026-05-06 07:06 41.79690 12.25615 15 ft 0 kts 295°